When you browse on this site, cookies collect data to enhance your experience and personalize the content and advertising you see.
Visit our Privacy Policy to learn more. By continuing to use the site, you agree to this use of cookies and data.
  • In United Kingdom
  • List of Countries
  • For 7 days
  • Water Temperature
  • Satellite Maps
  • Weather Map
  • Weather Widgets
  • user-avatar
    Login

    Hourly Weather Culfa

    Today, 22 May, Wednesday

    Time Temperature Precipitation Wind Pressure Humidity
    00:00 +18°C° 0 mm 2 mps 703 mmHg 58%
    01:00 +18°C° 0 mm 2 mps 703 mmHg 59%
    02:00 +18°C° 0 mm 2 mps 703 mmHg 60%
    03:00 +17°C° 0 mm 2 mps 702 mmHg 58%
    04:00 +18°C° 0 mm 2 mps 702 mmHg 57%
    05:00 +18°C° 0 mm 2 mps 703 mmHg 56%
    06:00 +19°C° 0 mm 1 mps 703 mmHg 55%
    07:00 +21°C° 0 mm 1 mps 703 mmHg 50%
    08:00 +22°C° 0 mm 1 mps 703 mmHg 46%
    09:00 +23°C° 0 mm 1 mps 702 mmHg 41%
    10:00 +25°C° 0 mm 1 mps 702 mmHg 38%
    11:00 +26°C° 0 mm 1 mps 702 mmHg 35%
    12:00 +27°C° 0 mm 1 mps 701 mmHg 32%
    13:00 +28°C° 0 mm 1 mps 701 mmHg 30%
    14:00 +28°C° 0 mm 1 mps 701 mmHg 28%
    15:00 +29°C° 0 mm 1 mps 700 mmHg 27%
    16:00 +28°C° 0.3 mm 1 mps 700 mmHg 28%
    17:00 +28°C° 0.3 mm 2 mps 700 mmHg 30%
    18:00 +27°C° 0.3 mm 2 mps 700 mmHg 32%
    19:00 +26°C° 0.4 mm 2 mps 700 mmHg 36%
    20:00 +25°C° 0.4 mm 1 mps 701 mmHg 41%
    21:00 +24°C° 0.4 mm 1 mps 701 mmHg 46%
    22:00 +23°C° 0.2 mm 1 mps 701 mmHg 48%
    23:00 +23°C° 0.2 mm 1 mps 700 mmHg 51%

    Tomorrow, 23 May, Thursday

    Time Temperature Precipitation Wind Pressure Humidity
    00:00 +22°C° 0.2 mm 1 mps 700 mmHg 53%
    01:00 +22°C° 0 mm 1 mps 700 mmHg 55%
    02:00 +21°C° 0 mm 1 mps 700 mmHg 57%
    03:00 +20°C° 0 mm 1 mps 700 mmHg 60%
    04:00 +19°C° 0 mm 0 mps 700 mmHg 58%
    05:00 +19°C° 0 mm 0 mps 700 mmHg 56%
    06:00 +20°C° 0 mm 0 mps 700 mmHg 54%
    07:00 +23°C° 0 mm 1 mps 700 mmHg 50%
    08:00 +24°C° 0 mm 1 mps 700 mmHg 45%
    09:00 +25°C° 0 mm 1 mps 700 mmHg 40%
    10:00 +26°C° 0 mm 1 mps 699 mmHg 37%
    11:00 +28°C° 0 mm 1 mps 699 mmHg 34%
    12:00 +29°C° 0 mm 2 mps 699 mmHg 30%
    13:00 +29°C° 0 mm 2 mps 698 mmHg 30%
    14:00 +30°C° 0 mm 2 mps 698 mmHg 29%
    15:00 +30°C° 0 mm 3 mps 698 mmHg 29%
    16:00 +29°C° 0.1 mm 2 mps 698 mmHg 31%
    17:00 +29°C° 0.1 mm 2 mps 698 mmHg 33%
    18:00 +28°C° 0.1 mm 2 mps 698 mmHg 35%
    19:00 +27°C° 0.4 mm 1 mps 698 mmHg 40%
    20:00 +26°C° 0.4 mm 1 mps 699 mmHg 45%
    21:00 +25°C° 0.4 mm 1 mps 699 mmHg 51%
    22:00 +24°C° 0.1 mm 1 mps 699 mmHg 51%
    23:00 +24°C° 0.1 mm 1 mps 700 mmHg 52%

    Day after tomorrow, 24 May, Friday

    Time Temperature Precipitation Wind Pressure Humidity
    00:00 +24°C° 0.1 mm 1 mps 700 mmHg 53%
    01:00 +23°C° 0 mm 1 mps 700 mmHg 54%
    02:00 +23°C° 0 mm 1 mps 700 mmHg 56%
    03:00 +22°C° 0 mm 1 mps 700 mmHg 58%
    04:00 +22°C° 0 mm 1 mps 700 mmHg 56%
    05:00 +23°C° 0 mm 1 mps 700 mmHg 53%
    06:00 +23°C° 0 mm 1 mps 700 mmHg 51%
    07:00 +25°C° 0 mm 1 mps 700 mmHg 47%
    08:00 +26°C° 0 mm 1 mps 700 mmHg 44%
    09:00 +27°C° 0 mm 2 mps 700 mmHg 40%
    10:00 +28°C° 0 mm 2 mps 700 mmHg 38%
    11:00 +29°C° 0 mm 2 mps 700 mmHg 36%
    12:00 +30°C° 0 mm 3 mps 700 mmHg 34%
    13:00 +30°C° 0.1 mm 3 mps 700 mmHg 32%
    14:00 +31°C° 0.1 mm 3 mps 700 mmHg 31%
    15:00 +33°C° 0.1 mm 3 mps 699 mmHg 30%
    16:00 +31°C° 0.3 mm 2 mps 699 mmHg 31%
    17:00 +30°C° 0.3 mm 2 mps 699 mmHg 33%
    18:00 +30°C° 0.3 mm 2 mps 699 mmHg 34%
    19:00 +28°C° 0.3 mm 2 mps 700 mmHg 38%
    20:00 +27°C° 0.3 mm 2 mps 700 mmHg 42%
    21:00 +26°C° 0.3 mm 2 mps 701 mmHg 46%
    22:00 +25°C° 0.2 mm 2 mps 701 mmHg 47%
    23:00 +25°C° 0.2 mm 2 mps 701 mmHg 48%

    25 May, Saturday

    Time Temperature Precipitation Wind Pressure Humidity
    00:00 +24°C° 0.2 mm 2 mps 701 mmHg 48%
    01:00 +24°C° 0.1 mm 2 mps 701 mmHg 48%
    02:00 +24°C° 0.1 mm 2 mps 701 mmHg 48%
    03:00 +23°C° 0.1 mm 1 mps 701 mmHg 48%
    04:00 +24°C° 0 mm 1 mps 701 mmHg 47%
    05:00 +25°C° 0 mm 1 mps 702 mmHg 45%
    06:00 +25°C° 0 mm 1 mps 702 mmHg 43%
    07:00 +27°C° 0 mm 1 mps 702 mmHg 38%
    08:00 +29°C° 0 mm 1 mps 702 mmHg 32%
    09:00 +30°C° 0 mm 1 mps 702 mmHg 27%
    10:00 +32°C° 0 mm 2 mps 702 mmHg 24%
    11:00 +34°C° 0 mm 2 mps 701 mmHg 22%
    12:00 +36°C° 0 mm 3 mps 701 mmHg 19%
    13:00 +37°C° 0 mm 3 mps 701 mmHg 18%
    14:00 +37°C° 0 mm 3 mps 700 mmHg 16%
    15:00 +38°C° 0 mm 4 mps 700 mmHg 15%
    16:00 +36°C° 1 mm 3 mps 700 mmHg 20%
    17:00 +34°C° 1 mm 3 mps 700 mmHg 25%
    18:00 +31°C° 1 mm 2 mps 700 mmHg 30%
    19:00 +30°C° 0.9 mm 2 mps 700 mmHg 33%
    20:00 +28°C° 0.9 mm 2 mps 701 mmHg 37%
    21:00 +27°C° 0.9 mm 1 mps 701 mmHg 40%
    22:00 +26°C° 0.3 mm 2 mps 701 mmHg 41%
    23:00 +26°C° 0.3 mm 2 mps 700 mmHg 42%

    26 May, Sunday

    Time Temperature Precipitation Wind Pressure Humidity
    00:00 +25°C° 0.3 mm 2 mps 700 mmHg 42%
    01:00 +25°C° 0 mm 2 mps 700 mmHg 43%
    02:00 +24°C° 0 mm 2 mps 699 mmHg 45%
    03:00 +24°C° 0 mm 1 mps 699 mmHg 46%
    04:00 +25°C° 0 mm 1 mps 699 mmHg 44%
    05:00 +26°C° 0 mm 1 mps 700 mmHg 43%
    06:00 +27°C° 0 mm 1 mps 700 mmHg 41%
    07:00 +28°C° 0 mm 1 mps 700 mmHg 36%
    08:00 +30°C° 0 mm 1 mps 699 mmHg 30%
    09:00 +31°C° 0 mm 1 mps 699 mmHg 25%
    10:00 +34°C° 0 mm 2 mps 699 mmHg 23%
    11:00 +35°C° 0 mm 2 mps 699 mmHg 21%
    12:00 +36°C° 0 mm 3 mps 699 mmHg 19%
    13:00 +36°C° 0.1 mm 3 mps 698 mmHg 19%
    14:00 +36°C° 0.1 mm 3 mps 698 mmHg 19%
    15:00 +36°C° 0.1 mm 3 mps 698 mmHg 19%
    16:00 +35°C° 0.3 mm 3 mps 698 mmHg 21%
    17:00 +35°C° 0.3 mm 3 mps 698 mmHg 23%
    18:00 +34°C° 0.3 mm 3 mps 698 mmHg 25%
    19:00 +31°C° 0.2 mm 3 mps 698 mmHg 31%
    20:00 +29°C° 0.2 mm 3 mps 699 mmHg 37%
    21:00 +28°C° 0.2 mm 2 mps 699 mmHg 43%
    22:00 +27°C° 0 mm 2 mps 699 mmHg 46%
    23:00 +26°C° 0 mm 3 mps 699 mmHg 49%

    27 May, Monday

    Time Temperature Precipitation Wind Pressure Humidity
    00:00 +25°C° 0 mm 3 mps 699 mmHg 52%
    01:00 +25°C° 0 mm 2 mps 699 mmHg 54%
    02:00 +24°C° 0 mm 2 mps 699 mmHg 56%
    03:00 +23°C° 0 mm 2 mps 700 mmHg 58%
    04:00 +24°C° 0 mm 2 mps 700 mmHg 56%
    05:00 +24°C° 0 mm 2 mps 700 mmHg 54%
    06:00 +24°C° 0 mm 1 mps 701 mmHg 52%
    07:00 +26°C° 0 mm 1 mps 701 mmHg 43%
    08:00 +27°C° 0 mm 1 mps 701 mmHg 33%
    09:00 +28°C° 0 mm 1 mps 702 mmHg 24%
    10:00 +29°C° 0 mm 1 mps 701 mmHg 22%
    11:00 +30°C° 0 mm 1 mps 701 mmHg 20%
    12:00 +31°C° 0 mm 1 mps 701 mmHg 17%
    13:00 +32°C° 0 mm 1 mps 701 mmHg 17%
    14:00 +32°C° 0 mm 2 mps 701 mmHg 16%
    15:00 +34°C° 0 mm 2 mps 700 mmHg 15%
    16:00 +33°C° 0 mm 3 mps 700 mmHg 19%
    17:00 +31°C° 0 mm 3 mps 701 mmHg 23%
    18:00 +32°C° 0 mm 4 mps 701 mmHg 27%
    19:00 +29°C° 0 mm 3 mps 701 mmHg 34%
    20:00 +28°C° 0 mm 3 mps 701 mmHg 42%
    21:00 +26°C° 0 mm 3 mps 702 mmHg 50%
    22:00 +25°C° 0 mm 3 mps 702 mmHg 52%
    23:00 +25°C° 0 mm 3 mps 702 mmHg 55%
    Show more